Home > Weather > Merida > Past weeks

Flag for Mexico Past Weather in Merida, Yucatán, Mexico — Yesterday and Last 2 Weeks

Now
95 °F

Partly sunny.


Feels Like: 100 °F
Forecast: 80 / 100 °F
Wind: 6 mph from Southeast

Location: Aerop. Internacional Merida - Yuc

Current Time: May 26, 2016 at 1:37:34 PM

Latest Report: May 26, 2016 at 12:46 PM


Visibility: 7 mi

Pressure: 29.94 "Hg

Humidity: 41%

Dew Point: 68 °F

Location of MeridaLocation

Past Weather in Merida — Graph

°F

Merida Temperature Yesterday

Maximum temperature yesterday: 102 °F (at 3:49 PM)
Minimum temperature yesterday: 79 °F (at 4:51 AM)
Average temperature yesterday: 87 °F

High & Low Weather Summary for the Past Weeks

 TemperatureHumidityPressure
High102 °F (May 17, 2:46 PM)94% (May 17, 11:30 PM)30.04 "Hg (May 17, 11:30 PM)
Low73 °F (May 17, 11:30 PM)27% (May 16, 2:45 PM)29.75 "Hg (May 18, 4:25 PM)
Average87 °F65%29.92 "Hg
* Reported May 11 1:44 PM — May 26 11:48 AM, Merida, Weather by CustomWeather, © 2016

Note: Actual official high and low records may vary slightly from our data, if they occured in-between our weather recording intervals... More about our weather records

Advertising

Merida Weather History for the Previous 24 Hours

Scroll right to see more
 ConditionsComfort  
Time TempWeatherWind HumidityBarometerVisibility
11:48 AM
Thu, May 26
95 °FPartly sunny.13 mph44%29.97 "Hg7 mi
10:47 AM91 °FPartly sunny.12 mph52%29.99 "Hg7 mi
9:47 AM88 °FPartly sunny.10 mph66%29.98 "Hg7 mi
8:51 AM86 °FPartly sunny.15 mph70%30.00 "Hg7 mi
8:47 AM86 °FPartly sunny.18 mph70%30.00 "Hg7 mi
7:46 AM82 °FPartly sunny.12 mph84%29.98 "Hg7 mi
6:46 AM79 °FClear.10 mph89%29.96 "Hg7 mi
5:45 AM81 °FClear.7 mph84%29.96 "Hg7 mi
4:45 AM81 °FClear.6 mph84%29.96 "Hg7 mi
3:45 AM81 °FClear.13 mph79%29.97 "Hg7 mi
2:45 AM84 °FClear.16 mph62%29.97 "Hg7 mi
12:45 AM86 °FClear.15 mph62%29.97 "Hg7 mi
11:45 PM
Wed, May 25
86 °FClear.12 mph59%29.98 "Hg7 mi
10:45 PM86 °FPassing clouds.7 mph66%29.97 "Hg7 mi
9:45 PM86 °FClear.7 mph66%29.96 "Hg7 mi
8:45 PM88 °FClear.12 mph59%29.93 "Hg7 mi
6:47 PM91 °FPartly sunny.10 mph52%29.91 "Hg7 mi
5:44 PM95 °FPartly sunny.12 mph47%29.89 "Hg7 mi
3:49 PM102 °FBroken clouds.7 mph31%29.92 "Hg7 mi
1:46 PM99 °FBroken clouds.6 mph37%29.96 "Hg7 mi
Weather by CustomWeather, © 2016

See weather overviewHow to use our weather pages